Theta_e
323 323 321 320 319 321 322 322 322 322 322 322 322 323 323 323 322 321 317 309 303 301 299 301 301 300 300 300 294 296 296 296 295 290 293 293 294 293 292 293 293 290 284 285 285 283 292 293 295 294 296 295 295 295
322 323 322 321 320 320 322 322 322 322 322 323 323 323 324 322 322 321 317 307 299 301 296 298 298 297 297 298 298 296 297 296 296 292 290 292 293 291 292 291 291 290 290 287 288 290 293 294 295 295 295 295 295 295
321 324 324 323 321 320 321 322 323 323 323 323 322 323 322 323 321 321 316 312 301 297 294 295 295 296 296 297 297 296 296 295 296 296 297 292 291 289 289 291 291 291 293 290 290 293 294 295 295 295 295 295 295 296
321 323 324 323 321 320 320 322 323 323 323 322 323 322 323 320 320 317 315 305 301 298 293 293 293 293 293 293 294 295 295 294 294 293 295 290 288 292 289 291 291 292 292 292 291 294 295 295 295 295 295 295 295 296
321 322 323 323 322 321 320 321 322 323 323 322 323 321 321 319 319 314 305 300 298 301 293 292 292 292 292 292 292 292 292 291 291 292 295 288 293 293 292 291 290 293 293 292 291 294 294 294 295 295 295 295 295 295
324 322 323 324 324 323 321 321 321 322 321 322 321 320 319 315 311 302 296 296 296 300 296 293 291 292 292 291 291 291 292 292 294 295 294 293 293 292 287 289 294 294 294 294 294 294 294 294 295 295 295 294 294 295
322 321 321 322 322 322 321 321 321 321 321 322 321 317 314 307 304 300 299 297 295 298 295 290 290 292 291 290 290 290 290 293 294 293 293 293 293 292 287 290 294 294 294 294 294 294 294 294 295 295 294 294 295 295
321 321 323 322 322 322 322 321 321 321 322 320 320 305 300 294 296 298 297 294 299 296 292 292 290 290 291 292 290 293 290 292 293 292 292 292 292 292 287 293 294 294 294 294 293 293 293 294 295 295 294 295 295 294
325 325 324 323 323 322 321 321 321 321 321 319 310 295 294 295 294 292 293 293 292 292 292 291 291 292 291 292 291 292 294 289 291 292 292 291 289 287 291 294 294 293 293 293 293 293 293 293 295 295 295 295 294 295
324 323 322 323 323 322 322 321 321 320 319 305 296 298 293 295 292 291 291 290 290 290 293 293 291 291 292 293 292 291 293 289 286 292 292 287 289 293 294 294 293 293 293 293 293 293 293 294 295 295 295 294 295 295
323 323 323 324 323 322 322 321 320 318 303 299 295 292 291 290 292 292 292 292 290 290 293 292 291 292 292 293 291 293 288 289 285 290 287 289 289 294 294 294 293 293 293 293 293 293 294 295 295 294 294 294 294 294
321 323 322 323 322 321 320 319 317 310 302 298 298 290 292 294 293 291 289 290 291 291 291 291 291 291 292 292 290 292 287 287 288 292 285 291 290 293 293 293 293 293 293 293 292 294 294 294 294 295 294 294 293 293
323 322 323 322 322 320 316 304 300 302 297 296 293 293 292 290 292 291 289 289 291 292 291 290 290 289 291 292 292 291 286 288 291 287 289 289 292 292 292 293 293 293 292 293 293 294 294 294 294 294 294 294 293 292
322 321 319 318 317 305 297 296 296 295 297 293 292 291 292 290 292 292 291 292 291 291 291 290 292 292 291 291 292 289 289 289 287 288 290 291 292 292 293 293 293 293 292 293 292 292 292 292 292 292 291 292 292 293
318 310 301 298 297 297 295 293 294 297 293 292 292 290 291 290 291 292 291 291 291 291 291 291 291 291 290 288 290 288 287 286 286 290 290 292 292 292 292 292 293 292 292 292 292 291 291 291 291 291 291 291 293 294
299 296 294 294 294 292 293 293 294 294 290 290 288 288 289 291 291 291 291 290 290 290 290 290 291 288 286 287 287 290 289 289 287 291 292 292 292 291 291 291 291 292 292 292 291 291 291 292 291 291 291 292 294 292
294 292 292 292 293 293 293 295 293 290 289 289 288 289 290 291 291 291 291 291 290 289 291 291 288 288 289 287 288 290 289 289 292 292 293 293 292 291 291 291 291 291 290 292 292 291 290 290 290 291 291 293 293 291
292 294 294 294 293 294 293 291 290 290 289 290 290 290 291 290 290 291 291 291 289 291 292 290 290 287 288 288 290 291 291 291 292 292 292 292 291 291 290 291 291 291 290 292 292 291 290 290 290 291 292 293 292 291
292 292 292 292 292 293 290 290 289 288 289 289 289 290 289 290 290 290 290 289 289 289 289 291 288 288 290 290 290 291 291 291 291 290 290 290 290 290 290 290 290 290 290 291 291 291 290 290 291 292 292 293 292 292
292 292 292 291 292 290 290 290 289 289 289 289 289 289 289 289 290 290 289 289 289 288 288 289 289 290 290 290 290 290 290 290 290 290 290 290 290 290 290 290 290 290 290 290 291 291 290 290 290 292 292 293 292 292
292 292 291 291 291 289 289 288 289 289 289 289 289 289 289 289 289 289 289 289 288 288 288 288 288 290 290 290 290 290 290 289 289 289 289 289 289 289 289 289 290 290 290 290 291 291 290 289 289 292 292 293 292 292
291 292 291 291 288 288 288 288 289 289 289 289 289 289 289 289 289 289 288 288 288 288 288 289 289 289 289 289 289 289 289 289 289 289 289 289 289 289 289 289 290 290 290 291 291 291 290 289 290 292 292 293 292 292
290 290 290 288 288 288 288 289 288 289 288 289 289 289 289 289 289 289 289 288 288 288 289 289 289 289 289 289 289 289 289 289 289 289 289 289 289 289 289 290 290 291 291 291 291 291 289 289 290 292 292 292 292 291
291 290 288 288 288 286 287 288 288 288 289 289 287 287 289 288 288 288 289 290 289 289 289 289 289 288 288 289 289 289 290 290 290 290 289 289 289 289 290 290 291 291 291 291 291 290 289 289 290 292 292 292 291 290
291 287 287 285 287 287 286 286 288 287 286 288 285 285 288 288 287 288 289 289 289 289 289 289 288 289 289 289 289 289 289 289 289 290 290 289 290 291 291 291 292 292 292 292 291 289 289 290 291 292 292 291 290 289
284 286 286 286 287 287 287 286 286 288 287 285 288 288 288 288 285 287 289 289 289 289 289 289 289 289 289 289 289 289 289 288 288 289 290 290 291 291 292 292 292 292 292 291 290 289 289 290 291 291 290 289 289 289
283 283 287 287 287 288 287 288 288 287 287 285 286 286 284 283 286 288 289 289 289 289 289 289 289 289 289 289 289 289 288 288 288 288 289 290 291 290 291 292 292 291 291 291 290 289 289 290 290 289 289 289 289 288
286 287 287 287 287 287 286 287 286 287 288 288 288 285 284 286 287 289 289 290 289 289 289 289 289 289 289 289 289 289 289 289 289 289 288 289 290 292 292 292 292 292 291 290 289 289 289 289 289 289 289 289 288 288
287 287 287 287 287 288 288 287 288 288 288 288 287 287 289 288 289 290 290 290 289 289 289 289 289 289 289 288 288 289 289 289 289 289 289 289 288 290 291 291 291 291 291 290 289 289 289 289 289 289 289 288 288 288
287 287 287 286 283 284 288 288 288 288 288 289 290 289 289 290 290 290 289 289 289 289 290 289 289 289 289 289 289 288 288 288 289 289 288 289 289 288 290 291 291 291 290 289 289 289 289 289 289 288 288 288 288 288
288 287 287 287 287 288 288 288 288 288 289 289 290 290 290 289 289 290 290 290 290 290 290 289 289 289 289 289 289 288 288 288 288 288 288 288 289 289 288 289 290 291 290 289 289 289 289 289 288 288 288 288 288 288
287 288 287 283 286 287 288 288 288 288 288 289 289 288 288 289 289 290 291 291 291 291 291 289 289 289 288 288 288 288 288 288 288 288 288 288 288 288 288 288 288 289 290 289 289 289 289 289 288 288 287 287 287 288
288 287 287 286 286 287 287 287 288 287 288 288 288 288 288 288 289 290 290 290 290 290 290 289 289 288 288 288 288 288 288 288 288 288 288 288 288 288 288 288 288 289 289 289 289 289 289 288 287 287 287 287 287 287
Wind_Speed
41 38 34 32 29 26 23 22 20 16 12 9 6 2 1 4 3 6 4 4 4 9 10 5 6 5 6 5 4 7 4 2 3 4 3 1 2 2 1 3 2 3 3 2 1 3 4 24 15 8 12 30 32 34
43 40 37 33 30 28 26 25 22 18 14 12 11 8 7 6 7 7 3 3 6 8 11 10 11 11 10 6 8 9 3 5 3 3 1 3 1 2 2 1 2 2 5 3 6 5 16 16 22 21 29 30 33 37
45 42 39 36 32 30 29 27 25 22 19 16 13 11 9 10 9 9 5 5 9 19 12 10 8 7 7 7 11 7 6 5 5 5 2 2 3 3 1 1 1 3 3 2 3 3 16 30 22 29 33 34 38 40
47 44 41 38 34 32 31 29 27 25 20 17 17 15 14 10 8 8 4 12 12 13 8 5 5 6 5 2 4 4 7 10 12 8 5 3 2 1 1 2 1 4 2 3 4 8 23 3 28 34 36 37 36 37
48 45 43 40 37 33 32 31 29 27 24 21 21 16 17 13 11 8 11 16 15 5 9 9 11 8 7 7 11 12 12 16 11 4 4 1 2 1 2 2 2 1 2 2 4 18 16 25 33 33 35 36 35 36
50 46 43 41 39 35 33 32 31 28 25 23 23 17 19 11 10 15 9 16 15 11 10 5 8 7 8 8 10 12 13 12 8 5 3 3 2 2 2 1 4 7 9 9 12 19 22 26 26 31 33 34 32 28
52 48 45 43 40 37 35 34 31 28 27 27 25 22 21 20 21 11 6 15 19 15 7 7 5 8 9 8 10 10 8 7 5 4 3 2 2 2 2 2 4 11 11 13 16 21 25 25 30 29 31 29 25 28
53 50 46 43 41 39 37 34 33 32 34 35 28 26 28 27 20 10 13 24 20 12 7 6 3 6 10 5 4 4 4 3 3 3 3 2 2 0 1 8 9 10 13 15 19 19 22 23 22 26 26 25 29 29
55 52 50 47 44 42 40 39 39 38 40 36 30 35 29 23 9 15 22 21 13 7 7 5 5 4 10 6 5 4 2 3 2 2 2 3 1 2 8 6 6 7 11 19 23 24 21 18 22 26 26 25 27 28
57 51 51 46 45 45 46 44 46 42 40 38 41 10 8 14 25 25 12 3 3 3 4 4 9 3 8 4 3 4 2 4 1 2 7 2 3 11 7 4 3 9 14 18 22 24 23 16 22 25 24 23 23 25
54 55 51 50 48 51 54 53 55 49 48 35 11 7 27 35 21 5 3 3 3 2 4 6 12 13 7 5 4 2 2 1 2 3 3 2 3 4 5 1 6 10 10 16 16 19 7 14 19 21 23 22 24 26
57 56 51 55 55 56 60 60 56 57 42 27 22 38 33 4 5 3 2 3 5 5 7 8 16 12 8 6 5 4 3 2 1 8 3 2 3 7 1 3 5 6 13 15 20 10 8 11 14 16 20 22 24 26
63 56 57 59 61 62 67 69 55 48 44 44 11 11 9 5 3 7 7 3 4 12 10 18 10 6 6 5 5 3 3 3 8 2 3 4 11 5 1 1 4 6 13 16 18 10 11 12 12 15 18 21 25 25
60 62 72 70 73 79 81 59 55 58 27 8 8 8 5 5 5 5 5 6 11 17 30 27 11 5 5 4 4 4 3 3 1 2 4 7 11 6 2 1 3 9 12 13 15 15 14 16 16 16 17 20 22 25
69 80 83 81 83 82 66 63 52 38 12 8 7 5 4 5 5 16 21 23 26 35 28 21 11 6 4 3 2 3 3 2 5 4 4 15 10 6 2 1 4 8 11 10 12 15 15 15 16 17 19 19 18 24
85 80 72 72 73 72 62 45 38 21 9 7 6 6 12 18 16 24 29 30 32 32 18 8 5 3 1 4 3 4 6 5 3 6 18 14 9 3 2 2 3 6 10 12 13 14 13 15 17 18 17 16 19 24
83 72 68 71 69 50 37 35 16 10 9 6 5 18 12 23 22 23 28 30 32 14 4 5 4 2 7 3 2 3 4 3 12 20 14 9 6 3 5 4 6 8 10 8 11 14 13 13 14 15 17 16 18 19
77 71 65 57 50 44 35 21 10 8 9 10 11 20 16 23 25 25 27 26 18 8 5 3 8 3 4 6 3 5 9 7 11 13 12 8 5 6 5 9 11 12 11 8 10 13 12 12 11 13 14 14 16 19
71 59 52 47 36 24 8 9 9 8 9 14 21 24 24 22 22 29 25 16 13 13 14 5 4 2 3 5 5 8 13 13 10 7 8 8 8 9 9 8 11 10 10 10 9 10 11 11 11 11 10 12 15 19
48 47 43 29 21 8 9 8 9 11 6 8 20 20 18 16 26 23 18 16 16 7 3 3 4 5 6 4 8 10 12 11 12 11 11 11 11 12 10 9 9 11 12 10 7 9 9 8 8 8 8 9 13 17
46 41 28 20 24 15 11 7 8 13 11 10 17 17 12 20 18 17 13 13 3 3 3 4 7 11 8 6 7 9 10 11 11 13 13 13 12 13 13 13 12 13 14 10 9 9 9 8 8 7 7 8 10 13
38 31 25 26 10 9 11 10 12 12 8 13 10 8 9 7 6 7 11 3 3 5 6 6 5 6 7 7 7 9 12 14 15 14 14 14 13 13 11 10 9 10 8 8 9 9 8 7 6 5 5 5 7 11
26 26 18 7 8 8 5 8 7 5 6 6 6 5 4 4 6 11 3 3 5 7 6 7 7 6 7 8 11 11 10 12 13 14 13 13 13 11 9 9 8 11 12 11 10 8 7 6 5 3 2 4 6 9
16 8 7 7 8 6 6 5 6 6 6 5 4 4 3 5 10 3 2 4 6 6 10 11 9 6 5 5 5 5 6 8 9 10 9 11 10 8 8 9 9 11 11 9 9 7 6 5 4 3 2 3 5 7
6 7 6 8 6 6 5 3 4 5 4 3 4 2 4 6 2 2 2 4 10 13 12 11 9 8 7 5 3 2 4 6 8 8 5 6 7 8 9 8 8 8 9 9 7 7 6 5 5 3 2 3 4 6
6 6 4 4 4 4 3 4 4 5 4 3 4 7 4 4 2 3 4 6 10 14 18 17 15 12 8 4 2 2 3 4 5 7 6 9 11 9 8 9 9 8 8 8 8 7 6 6 5 4 3 3 3 5
4 1 4 6 7 11 8 9 10 8 4 5 6 5 3 3 4 4 6 10 12 14 14 14 13 10 7 5 4 4 4 3 3 4 5 6 8 9 9 10 8 5 6 7 8 7 7 7 6 4 3 3 3 4
4 5 5 8 7 6 7 6 4 4 5 10 13 4 8 8 6 6 9 10 9 8 10 12 14 14 14 12 9 8 7 6 6 6 6 6 7 7 8 10 10 9 7 7 9 9 9 8 7 5 4 3 3 4
4 16 13 10 7 4 3 5 7 7 14 24 9 6 9 7 11 12 11 11 10 10 11 12 14 16 19 20 19 17 12 9 9 9 9 8 7 6 7 8 10 11 9 9 10 10 10 8 7 6 4 3 3 4
8 9 6 4 4 2 3 6 9 17 22 13 9 12 9 10 13 13 13 13 14 14 12 13 14 17 18 19 19 19 19 17 14 13 13 11 9 7 8 8 9 10 10 10 11 12 12 11 9 8 6 4 3 4
15 6 6 5 4 4 10 12 18 19 21 14 12 10 9 7 9 10 11 11 12 15 16 17 19 21 22 22 22 22 22 21 20 19 17 14 13 11 9 8 9 10 11 11 12 12 12 11 10 9 7 5 4 3
8 4 6 4 4 12 14 10 8 5 8 8 7 8 6 5 6 15 18 12 8 10 11 12 11 9 9 11 13 15 16 17 17 17 18 18 17 15 14 12 12 13 14 14 14 14 13 12 11 10 8 6 5 4
7 10 11 8 7 7 7 6 4 4 5 6 5 6 8 5 7 9 17 17 14 12 12 12 11 10 10 10 11 11 12 13 14 16 16 17 16 15 17 16 14 13 15 17 16 16 15 14 12 10 8 7 7 7
Wind_Direction
205 205 205 204 203 202 199 194 193 193 194 202 204 229 360 360 7 15 55 97 113 109 85 111 120 114 114 126 136 153 100 41 43 52 103 224 131 228 58 322 108 136 116 269 46 27 332 350 346 359 313 322 321 318
207 207 207 207 206 205 204 200 200 202 209 223 234 241 288 307 310 310 337 142 131 116 120 130 126 123 116 130 141 153 118 115 112 83 348 104 68 56 99 286 24 14 174 202 167 226 297 325 327 334 331 323 321 319
208 208 209 209 208 208 208 208 208 212 218 229 243 258 270 275 293 292 272 189 159 108 112 130 119 135 162 173 179 154 150 158 145 123 116 132 95 119 130 242 332 321 180 196 35 322 323 325 335 334 335 330 329 329
210 208 208 210 211 212 212 213 213 217 220 230 240 256 265 272 281 277 236 191 178 129 104 86 113 113 101 136 188 186 160 146 141 123 79 109 125 107 206 213 171 227 5 317 278 319 329 338 333 333 335 336 335 333
210 210 210 210 212 214 215 216 216 218 223 229 238 246 251 273 264 246 189 180 184 171 122 128 115 109 116 124 121 122 128 133 119 85 72 215 127 100 13 51 287 24 30 65 260 327 317 320 329 335 336 336 337 340
209 210 210 212 213 216 217 218 220 220 225 227 241 245 245 244 210 163 152 173 178 156 109 119 120 130 143 132 126 124 124 120 108 105 106 99 91 115 91 224 58 39 9 4 322 329 324 320 331 339 338 338 341 347
211 211 213 213 216 219 218 218 218 221 226 227 233 222 219 191 176 173 173 166 166 150 111 107 114 146 137 125 103 97 107 100 106 99 95 106 123 136 111 200 35 355 349 336 329 328 327 334 335 340 342 345 349 346
213 214 214 213 215 217 217 214 215 219 221 220 226 188 168 166 163 145 149 153 154 152 112 110 104 153 168 127 103 94 91 98 76 101 116 105 115 142 294 256 310 339 329 325 331 327 322 323 336 348 350 352 347 351
212 215 217 215 216 216 215 212 211 217 217 218 197 159 143 151 128 131 141 148 152 112 115 122 140 180 168 118 106 103 113 68 97 91 136 138 267 235 224 236 304 338 334 325 321 323 326 334 343 349 351 351 351 350
212 214 216 209 212 211 209 211 210 213 212 183 147 127 114 144 135 129 133 130 112 104 122 105 129 128 153 116 98 117 112 142 92 232 144 128 252 250 242 239 325 326 331 332 334 338 335 352 348 348 347 349 352 349
211 212 210 212 211 208 205 206 207 201 178 150 134 102 137 141 135 93 128 111 78 46 138 126 142 126 131 128 125 123 156 123 86 239 119 248 269 205 149 332 324 339 336 334 335 333 337 347 350 348 345 348 351 350
209 208 208 210 209 207 204 203 202 186 173 164 139 125 130 148 102 144 216 131 190 197 151 125 135 119 116 117 109 143 120 71 180 152 83 252 235 139 253 331 340 338 336 345 350 354 356 360 6 354 347 350 350 349
202 209 207 210 205 203 197 179 167 169 146 130 104 125 138 153 143 187 193 213 145 163 150 145 125 112 111 105 104 119 84 194 139 86 224 225 147 142 76 10 14 336 345 4 7 27 9 2 9 355 347 348 345 351
207 206 199 196 194 179 165 154 152 143 136 95 101 119 201 178 203 198 170 142 147 148 140 129 108 113 118 103 140 111 204 91 92 215 229 168 148 146 118 61 353 352 1 22 22 4 9 1 4 1 353 347 348 354
182 171 159 153 158 159 148 143 146 151 101 105 120 114 189 159 141 131 128 128 135 141 134 115 89 99 96 104 115 105 61 196 190 222 183 159 149 145 127 46 354 352 4 3 357 358 9 3 359 358 356 357 354 353
142 141 137 142 141 137 138 130 130 115 75 94 90 103 139 113 116 120 126 127 140 137 122 96 106 81 76 124 99 192 148 198 234 182 156 159 161 177 295 318 335 345 349 355 347 348 357 356 355 355 355 6 2 5
130 128 135 137 136 125 115 111 85 63 80 70 79 148 139 125 133 131 136 136 148 138 107 127 96 156 122 91 192 191 195 200 153 155 169 184 208 258 315 296 298 329 340 333 342 340 348 344 347 352 358 7 6 10
122 133 134 131 124 119 95 73 82 70 69 94 107 133 125 134 133 134 138 145 150 118 140 136 127 111 147 162 206 212 187 154 147 159 173 184 218 284 297 291 299 313 324 319 328 336 341 342 354 360 360 3 4 6
124 122 124 118 112 109 85 51 64 86 85 97 111 119 122 129 138 147 148 142 136 123 122 100 93 146 180 182 174 193 180 178 180 194 209 235 260 287 301 293 296 300 309 303 317 332 340 341 350 355 357 3 3 4
120 120 115 115 109 79 80 76 78 89 99 108 114 104 105 120 141 144 143 142 134 111 87 125 156 160 145 128 163 153 160 180 195 197 218 242 266 274 277 285 285 292 302 305 304 310 323 331 345 350 351 4 358 5
123 120 116 113 91 71 86 94 83 109 103 102 117 105 99 134 137 140 136 145 116 120 169 193 172 170 179 184 186 203 221 236 248 257 269 272 268 270 273 268 266 274 288 293 294 299 310 323 338 343 342 355 355 358
119 130 120 104 70 73 72 68 100 107 92 117 98 97 111 108 126 147 153 141 188 212 197 196 196 187 203 218 232 249 249 253 262 267 262 265 270 273 277 273 267 272 268 278 278 288 301 311 317 328 340 356 351 355
121 114 109 68 79 74 81 77 82 71 103 120 105 93 83 108 143 146 162 212 233 221 210 211 203 226 241 244 243 248 257 262 264 266 265 264 265 263 271 271 272 271 265 268 270 279 294 296 295 296 328 337 347 353
118 74 58 59 64 98 108 77 87 96 100 88 85 94 101 130 151 168 209 229 210 175 191 195 203 218 228 240 245 242 246 250 262 265 264 258 257 263 271 272 268 259 255 250 249 268 284 279 261 257 282 314 344 352
74 28 64 62 83 99 88 78 93 84 94 105 94 108 147 144 111 169 224 247 201 193 184 184 193 198 199 198 213 278 302 295 287 286 267 260 263 270 264 250 251 254 245 237 250 263 259 246 233 237 269 302 334 349
67 29 63 103 115 101 141 112 131 119 111 87 94 131 136 124 105 224 225 216 197 195 193 196 192 192 196 201 239 300 322 316 313 285 260 245 248 257 259 246 255 247 233 236 238 241 234 222 220 222 252 290 329 345
94 68 88 94 108 117 97 83 108 99 107 135 160 144 109 117 219 232 200 192 190 191 191 191 195 202 196 194 206 235 260 288 310 299 262 253 256 257 247 242 247 237 239 239 232 227 224 220 219 226 252 281 317 339
101 128 126 122 96 85 110 112 124 142 140 147 137 158 173 184 192 169 165 164 166 184 200 208 215 221 224 226 219 221 231 249 272 292 302 294 271 251 243 242 244 243 242 236 227 219 220 220 220 226 245 265 299 329
88 129 119 94 92 93 117 144 168 158 162 164 152 173 177 163 152 154 167 176 192 207 215 220 224 230 233 235 237 237 239 252 262 276 283 291 296 264 247 243 230 223 233 235 227 221 218 222 222 223 230 251 288 314
150 136 106 103 97 140 130 159 151 156 159 143 113 128 142 151 171 186 195 204 217 231 244 244 243 241 243 246 251 251 250 252 260 264 272 279 283 280 242 230 223 223 228 228 221 217 216 216 218 216 218 233 273 299
135 110 84 76 83 98 117 137 149 149 154 149 137 148 159 180 209 224 239 256 271 260 251 251 251 249 249 250 252 254 254 254 257 255 257 262 262 259 254 242 235 233 230 226 220 215 215 216 217 217 222 235 258 282
139 140 129 103 101 137 132 131 131 124 147 160 177 193 211 235 262 274 269 277 267 258 268 255 254 266 265 263 257 254 256 256 252 243 236 239 242 244 244 246 241 235 229 222 214 213 213 213 216 219 225 240 261 275
121 114 108 107 130 166 154 134 116 109 135 161 184 205 222 228 237 246 276 281 282 275 265 251 248 256 262 264 262 258 256 256 255 246 233 225 224 228 230 235 236 232 224 219 217 214 213 215 217 220 232 244 261 275